DW1035 Weather Reports


Display with metric or nautical units.
time (UTC)temp
F
wind
direction
speed
MPH
gust
MPH
rain 1hr
in
rain 24hr
in
rain mn
in
humidity
%
barometer
mb
20260508220010 57 0 0.0 0.0 0.00 0.00 0.00 38 1005.8
20260508214509 58 0 0.0 0.0 0.00 0.00 0.00 36 1005.6
20260508214009 57 0 0.0 0.0 0.00 0.00 0.00 37 1005.6
20260508213509 57 0 0.0 0.0 0.00 0.00 0.00 36 1005.6
20260508213010 58 0 0.0 0.0 0.00 0.00 0.00 35 1005.6
20260508211509 58 0 0.0 0.0 0.00 0.00 0.00 36 1005.5
20260508211009 57 0 0.0 0.0 0.00 0.00 0.00 36 1005.5
20260508210509 57 0 0.0 0.0 0.00 0.00 0.00 37 1005.3
20260508210009 58 0 0.0 0.0 0.00 0.00 0.00 37 1005.3
20260508204509 59 0 0.0 0.0 0.00 0.00 0.00 36 1005.2
20260508203510 58 0 0.0 0.0 0.00 0.00 0.00 36 1005.1
20260508201509 58 0 0.0 0.0 0.00 0.00 0.00 38 1004.9
20260508201009 59 0 0.0 0.0 0.00 0.00 0.00 38 1004.9
20260508200509 59 0 0.0 0.0 0.00 0.00 0.00 39 1004.8
20260508200009 59 0 0.0 0.0 0.00 0.00 0.00 37 1004.8
20260508194009 58 0 0.0 0.0 0.00 0.00 0.00 38 1004.7
20260508193509 59 0 0.0 0.0 0.00 0.00 0.00 38 1004.7
20260508193009 60 0 0.0 0.0 0.00 0.00 0.00 36 1004.6
20260508191508 59 0 0.0 0.0 0.00 0.00 0.00 37 1004.6
20260508191009 59 0 0.0 0.0 0.00 0.00 0.00 37 1004.5
20260508190009 59 0 0.0 0.0 0.00 0.00 0.00 37 1004.5
20260508184509 59 0 0.0 0.0 0.00 0.00 0.00 36 1004.4
20260508184009 59 0 0.0 0.0 0.00 0.00 0.00 35 1004.2
20260508183508 59 0 0.0 0.0 0.00 0.00 0.00 34 1004.3
20260508183009 59 0 0.0 0.0 0.00 0.00 0.00 34 1004.3
20260508181509 59 0 0.0 0.0 0.00 0.00 0.00 35 1004.4
20260508181008 59 0 0.0 0.0 0.00 0.00 0.00 34 1004.3
20260508180509 59 0 0.0 0.0 0.00 0.00 0.00 35 1004.4
20260508180008 59 0 0.0 0.0 0.00 0.00 0.00 34 1004.2
20260508174508 59 0 0.0 0.0 0.00 0.00 0.00 35 1004.3
20260508174008 60 0 0.0 0.0 0.00 0.00 0.00 35 1004.3
20260508173509 60 0 0.0 0.0 0.00 0.00 0.00 34 1004.3
20260508171508 61 0 0.0 0.0 0.00 0.00 0.00 36 1004.3
20260508170508 60 0 0.0 0.0 0.00 0.00 0.00 34 1004.2
20260508170009 58 0 0.0 0.0 0.00 0.00 0.00 37 1004.4
20260508164008 58 0 0.0 0.0 0.00 0.00 0.00 39 1004.5
20260508163508 58 0 0.0 0.0 0.00 0.00 0.00 38 1004.5
20260508163008 58 0 0.0 0.0 0.00 0.00 0.00 40 1004.6
20260508161508 59 0 0.0 0.0 0.00 0.00 0.00 38 1004.7
20260508161008 58 0 0.0 0.0 0.00 0.00 0.00 37 1004.7
20260508160508 57 0 0.0 0.0 0.00 0.00 0.00 38 1004.7
20260508154508 58 0 0.0 0.0 0.00 0.00 0.00 39 1004.8
20260508154008 58 0 0.0 0.0 0.00 0.00 0.00 40 1004.9
20260508153508 59 0 0.0 0.0 0.00 0.00 0.00 39 1004.7
20260508153008 59 0 0.0 0.0 0.00 0.00 0.00 37 1004.8
20260508151508 59 0 0.0 0.0 0.00 0.00 0.00 38 1004.8
20260508151008 59 0 0.0 0.0 0.00 0.00 0.00 37 1004.9
20260508150507 59 0 0.0 0.0 0.00 0.00 0.00 39 1004.9
20260508144508 59 0 0.0 0.0 0.00 0.00 0.00 39 1005.0
20260508144007 58 0 0.0 0.0 0.00 0.00 0.00 38 1005.0
20260508143508 58 0 0.0 0.0 0.00 0.00 0.00 43 1005.1
20260508143008 58 0 0.0 0.0 0.00 0.00 0.00 39 1005.0
20260508141508 57 0 0.0 0.0 0.00 0.00 0.00 40 1005.1
20260508141007 58 0 0.0 0.0 0.00 0.00 0.00 40 1005.3
20260508140508 58 0 0.0 0.0 0.00 0.00 0.00 41 1005.3
20260508140007 57 0 0.0 0.0 0.00 0.00 0.00 41 1005.3
20260508134508 56 0 0.0 0.0 0.00 0.00 0.00 43 1005.4
20260508134007 56 0 0.0 0.0 0.00 0.00 0.00 44 1005.6
20260508133507 56 0 0.0 0.0 0.00 0.00 0.00 44 1005.6
20260508131507 56 0 0.0 0.0 0.00 0.00 0.00 46 1005.7
20260508131008 55 0 0.0 0.0 0.00 0.00 0.00 48 1005.7
20260508130507 55 0 0.0 0.0 0.00 0.00 0.00 48 1005.6
20260508130007 55 0 0.0 0.0 0.00 0.00 0.00 48 1005.7
20260508124508 54 0 0.0 0.0 0.00 0.00 0.00 49 1005.7
20260508124007 53 0 0.0 0.0 0.00 0.00 0.00 47 1005.7
20260508123007 52 0 0.0 0.0 0.00 0.00 0.00 51 1005.7
20260508121507 50 0 0.0 0.0 0.00 0.00 0.00 54 1005.8
20260508121007 49 0 0.0 0.0 0.00 0.00 0.00 52 1005.9
20260508120507 49 0 0.0 0.0 0.00 0.00 0.00 54 1005.9
20260508114007 46 0 0.0 0.0 0.00 0.00 0.00 58 1005.8
20260508113507 46 0 0.0 0.0 0.00 0.00 0.00 59 1005.8
20260508113007 45 0 0.0 0.0 0.00 0.00 0.00 59 1005.8
20260508111507 43 0 0.0 0.0 0.00 0.00 0.00 61 1005.8
20260508111007 43 0 0.0 0.0 0.00 0.00 0.00 62 1005.7
20260508110507 42 0 0.0 0.0 0.00 0.00 0.00 64 1005.7
20260508110007 42 0 0.0 0.0 0.00 0.00 0.00 65 1005.7
20260508104507 40 0 0.0 0.0 0.00 0.00 0.00 71 1005.6
20260508104007 39 0 0.0 0.0 0.00 0.00 0.00 72 1005.5
20260508103508 39 0 0.0 0.0 0.00 0.00 0.00 72 1005.5
20260508103006 39 0 0.0 0.0 0.00 0.00 0.00 73 1005.5
20260508101507 38 0 0.0 0.0 0.00 0.00 0.00 76 1005.3
20260508101006 38 0 0.0 0.0 0.00 0.00 0.00 77 1005.3
20260508094507 38 0 0.0 0.0 0.00 0.00 0.00 78 1005.0
20260508094007 38 0 0.0 0.0 0.00 0.00 0.00 77 1005.0
20260508093506 39 0 0.0 0.0 0.00 0.00 0.00 75 1004.9
20260508093007 39 0 0.0 0.0 0.00 0.00 0.00 73 1004.9
20260508091506 40 0 0.0 0.0 0.00 0.00 0.00 72 1004.8
20260508091006 40 0 0.0 0.0 0.00 0.00 0.00 71 1004.7
20260508090506 39 0 0.0 0.0 0.00 0.00 0.00 73 1004.7
20260508090006 39 0 0.0 0.0 0.00 0.00 0.00 73 1004.6
20260508084006 39 0 0.0 0.0 0.00 0.00 0.00 75 1004.1
20260508083506 39 0 0.0 0.0 0.00 0.00 0.00 75 1004.1
20260508083006 39 0 0.0 0.0 0.00 0.00 0.00 74 1004.0
20260508081506 38 0 0.0 0.0 0.00 0.00 0.00 77 1004.1
20260508081007 38 0 0.0 0.0 0.00 0.00 0.00 75 1004.0
20260508080506 38 0 0.0 0.0 0.00 0.00 0.00 75 1004.0
20260508073506 38 0 0.0 0.0 0.00 0.00 0.00 76 1003.9
20260508073006 38 0 0.0 0.0 0.00 0.00 0.00 77 1003.9
20260508071506 39 0 0.0 0.0 0.00 0.00 0.00 78 1003.9
20260508071005 39 0 0.0 0.0 0.00 0.00 0.00 78 1003.9
20260508064506 40 0 0.0 0.0 0.00 0.00 0.00 72 1003.8
20260508064006 40 0 0.0 0.0 0.00 0.00 0.00 72 1003.8
20260508063506 41 0 0.0 0.0 0.00 0.00 0.00 73 1003.8
20260508063007 41 0 0.0 0.0 0.00 0.00 0.00 72 1003.9
20260508061506 41 0 0.0 0.0 0.00 0.00 0.00 72 1004.0
20260508060506 41 0 0.0 0.0 0.00 0.00 0.00 72 1004.1
20260508060006 40 0 0.0 0.0 0.00 0.00 0.00 76 1004.1
20260508054506 41 0 0.0 0.0 0.00 0.00 0.00 76 1004.2
20260508054005 41 0 0.0 0.0 0.00 0.00 0.00 74 1004.2
20260508053505 41 0 0.0 0.0 0.00 0.00 0.00 74 1004.2
20260508053006 41 0 0.0 0.0 0.00 0.00 0.00 73 1004.2
20260508051005 42 0 0.0 0.0 0.00 0.00 0.00 72 1004.5
20260508050505 43 0 0.0 0.0 0.00 0.00 0.00 72 1004.5
20260508050005 43 0 0.0 0.0 0.00 0.00 0.00 71 1004.5
20260508044505 45 0 0.0 0.0 0.00 0.00 0.00 67 1004.6
20260508044005 45 0 0.0 0.0 0.00 0.00 0.00 66 1004.6
20260508043505 46 0 0.0 0.0 0.00 0.00 0.00 63 1004.6
20260508043005 46 0 0.0 0.0 0.00 0.00 0.00 64 1004.6
20260508041505 46 0 0.0 0.0 0.00 0.00 0.00 64 1004.6
20260508041005 46 0 0.0 0.0 0.00 0.00 0.00 65 1004.5
20260508040505 47 0 0.0 0.0 0.00 0.00 0.00 64 1004.5
20260508040005 47 0 0.0 0.0 0.00 0.27 0.00 63 1004.6
20260508034505 48 0 0.0 0.0 0.00 0.27 0.00 56 1004.7
20260508033005 48 0 0.0 0.0 0.00 0.27 0.00 60 1004.6
20260508031505 49 0 0.0 0.0 0.00 0.27 0.00 51 1004.6
20260508031005 49 0 0.0 0.0 0.00 0.27 0.00 52 1004.6
20260508030504 49 0 0.0 0.0 0.00 0.27 0.00 53 1004.5
20260508030005 48 0 0.0 0.0 0.00 0.27 0.00 52 1004.5
20260508024505 48 0 0.0 0.0 0.00 0.28 0.00 56 1004.7
20260508023504 49 0 0.0 0.0 0.00 0.28 0.00 56 1004.5
20260508023005 49 0 0.0 0.0 0.00 0.28 0.00 56 1004.5
20260508021504 50 0 0.0 0.0 0.00 0.28 0.00 51 1004.2
20260508021005 50 0 0.0 0.0 0.00 0.28 0.00 51 1004.2
20260508020505 50 0 0.0 0.0 0.00 0.28 0.00 53 1004.2
20260508020004 49 0 0.0 0.0 0.00 0.28 0.00 55 1004.1
20260508014504 49 0 0.0 0.0 0.00 0.28 0.00 60 1003.8
20260508014004 50 0 0.0 0.0 0.00 0.28 0.00 58 1003.7
20260508013504 50 0 0.0 0.0 0.00 0.28 0.00 56 1003.6
20260508013005 50 0 0.0 0.0 0.00 0.28 0.00 53 1003.5
20260508011504 50 0 0.0 0.0 0.00 0.28 0.00 52 1003.4
20260508011005 50 0 0.0 0.0 0.00 0.28 0.00 54 1003.4
20260508010504 50 0 0.0 0.0 0.00 0.28 0.00 54 1003.3
20260508010004 51 0 0.0 0.0 0.00 0.28 0.00 54 1003.3
20260508004504 52 0 0.0 0.0 0.00 0.28 0.00 51 1003.1
20260508003005 54 0 0.0 0.0 0.00 0.28 0.00 46 1003.0
20260508001504 55 0 0.0 0.0 0.00 0.28 0.00 42 1002.6
20260508001004 56 0 0.0 0.0 0.00 0.28 0.00 42 1002.6
20260508000504 56 0 0.0 0.0 0.00 0.28 0.00 41 1002.5
20260508000004 56 0 0.0 0.0 0.00 0.29 0.00 41 1002.5
20260507234504 57 0 0.0 0.0 0.00 0.29 0.00 40 1002.4
20260507234004 57 0 0.0 0.0 0.00 0.29 0.00 40 1002.4
20260507233504 57 0 0.0 0.0 0.00 0.29 0.00 38 1002.4
20260507233004 58 0 0.0 0.0 0.00 0.29 0.00 39 1002.4
20260507231504 59 0 0.0 0.0 0.00 0.29 0.00 39 1002.3
20260507231004 59 0 0.0 0.0 0.00 0.29 0.00 37 1002.2
20260507230503 59 0 0.0 0.0 0.00 0.29 0.00 37 1002.2
20260507230010 59 0 0.0 0.0 0.00 0.29 0.00 37 1002.1
20260507224010 60 0 0.0 0.0 0.00 0.29 0.00 35 1001.8
20260507223510 61 0 0.0 0.0 0.00 0.29 0.00 35 1001.8
20260507223010 61 0 0.0 0.0 0.00 0.29 0.00 35 1001.7
20260507221510 62 0 0.0 0.0 0.00 0.32 0.00 35 1001.6
20260507221011 62 0 0.0 0.0 0.00 0.32 0.00 35 1001.6
20260507220510 62 0 0.0 0.0 0.00 0.34 0.00 36 1001.6